Barrow: Past 24 Hour Conditions

 

Iqaluit Airport

09:00 AM EDT 23 April 2014
This table is a summary of hourly weather conditions for the past 24 hours.
Date / Time
(EDT)
Wind(knots) Conditions Visibility(km) Pressure(kPa) Air tempC) Relative humidity(%) Dew pointC) Wind Chill
23 April 2014
9:00 SSE 2 Ice Crystals 32 102.4 -13 75 -17 -15
8:00 N 1 Ice Crystals 32 102.4 -14 76 -17 -16
7:00 N 1 Ice Crystals 40 102.3 -14 76 -18 -16
6:00 N 1 Ice Crystals 48 102.2 -14 78 -17 -16
5:00 calm Mostly Cloudy 48 102.2 -15 79 -18 *
4:00 N 1 Mostly Cloudy 24 102.2 -15 79 -18 -17
3:00 NNW 2 Cloudy 24 102.1 -14 74 -18 -16
2:00 WNW 2 Cloudy 24 102.1 -14 73 -17 -16
1:00 N 1 Light Snow 24 102.1 -14 72 -18 -16
0:00 S 4 Light Snow 24 102.0 -13 71 -17 -17
22 April 2014
23:00 SSE 2 Light Snow 16 102.0 -13 72 -17 -15
22:00 ESE 4 Light Snow 16 102.0 -13 76 -16 -17
21:00 SE 3 Light Snow 16 101.9 -13 78 -16 -16
20:00 SE 6 Light Snow 10 101.9 -11 77 -14 -17
19:00 ESE 6 Light Snow 8 101.8 -10 76 -14 -16
18:00 SE 8 Light Snow 6 101.8 -10 77 -13 -17
17:00 SE 9 Ice Crystals 10 101.7 -9 76 -13 -16
16:00 SSE 10 Light Snow 10 101.6 -9 76 -12 -16
15:00 SSE 12 Light Snow 8 101.6 -9 74 -12 -17
14:00 SE 14 Light Snow 10 101.6 -9 73 -13 -18
13:00 SSE 14 Light Snow 13 101.6 -9 73 -13 -18
12:00 SE 14 Light Snow 10 101.5 -10 75 -13 -18
11:00 SE 13 Light Snow 8 101.5 -10 77 -13 -18
10:00 SE 15 Snow 5 101.4 -10 78 -13 -19
9:00 SE 13 Light Snow 2 101.4 -10 79 -13 -19
 
Map of Arctic - Eastern Arctic marine weather areas Baker Lake Airport Chesterfield Inlet Airport Coral Harbour Airport Gjoa Haven Airport Kugaaruk Airport Rankin Inlet Airport Shepherd Bay Airport Whale Cove Airport Arctic Bay Brevoort Island Qikiqtarjuaq Airport Cape Dorset Airport Cape Dyer Cape Hooper Clyde Airport Grise Fiord Airport Hall Beach Airport Igloolik Airport Iqaluit Airport Longstaff Bluff Pangnirtung Airport Pond Inlet Airport Repulse Bay Airport Resolute Airport Resolution Island Rowley Island Airport Taloyoak Airport Wager Bay Akulivik Airport Ivujivik Airport Puvirnituq Airport Kangiqsujuaq Airport Kangirsuk Airport Quaqtaq Airport Tasiujaq Airport Cape Kakkiviak Cape Kiglapait Nain Airport Saglek Cape Mercy Kimmirut Airport Aupaluk Airport Salluit Airport Kangiqsualujjuaq Airport Fort Ross
Legend: buoyBuoy land stationLand Station